Terug naar catalogus

RISAT-2BR1

ActiefWetenschapVLEO
NORAD 44857·PAYLOAD·🇮🇳 India

Gelanceerd Dec 11, 2019 vanaf Satish Dhawan Space Centre

Loading…

Volgende Passages (komende 24 uur)

TLE

VersSource: Space-Track

Epoch: Sep 14, 2026, 14:32 UTC

1 44857U 19089F   26257.60620828  .00001974  00000-0  15822-3 0  9991
2 44857  36.9611 301.2691 0012251 192.1085 167.9363 15.00862282370644

Volg RISAT-2BR1 in realtime met AllMySat

Download on the App Store